Chicago Midway, IL

7:36 PM CST on December 06, 2019 (GMT -0600)
Chicago-Midway

Weather History for KMDW - October, 2019

Change the Weather History Date:

Tuesday, October 1, 2019

  Actual Average Record
Temperature  
Mean Temperature 80 °F 60 °F  
Max Temperature 88 °F 69 °F 92 °F (1971)
Min Temperature 72 °F 51 °F 32 °F (1974)
Degree Days  
Heating Degree Days 0 7  
Month to date heating degree days 7  
Since 1 July heating degree days 89  
Cooling Degree Days 15 1  
Month to date cooling degree days 1  
Year to date cooling degree days 1030  
Growing Degree Days 30 (Base 50)    
Moisture  
Dew Point 69 °F    
Average Humidity 68    
Maximum Humidity 84    
Minimum Humidity 52    
Precipitation  
Precipitation 0.00 in 0.10 in 1.29 in (2016)
Month to date precipitation 0.10  
Year to date precipitation 29.96  
Sea Level Pressure  
Sea Level Pressure 29.89 in    
Wind  
Wind Speed 9 mph (SW)    
Max Wind Speed 13 mph    
Max Gust Speed 22 mph    
Visibility 10 miles    
Events      
T = Trace of Precipitation, MM = Missing Value Source: NWS Daily Summary

Daily Weather History Graph

Daily Weather History Graph

Search for Another Location

Airport or City:

Astronomy

Oct. 01, 2019 Rise Set
Actual Time 6:47 AM CDT 6:33 PM CDT
Civil Twilight 6:19 AM CDT 7:00 PM CDT
Nautical Twilight 5:47 AM CDT 7:32 PM CDT
Astronomical Twilight 5:14 AM CDT 8:05 PM CDT
Moon 10:05 AM CDT (10/1) 8:43 PM CDT (10/1)
Length of Visible Light 12h 40m
Length of Day
11h 45m
Waxing Crescent, 12% of the Moon is Illuminated
Oct 1
Waxing Crescent
Oct 5
First Quarter
Oct 13
Full
Oct 21
Last Quarter
Oct 27
New

Hourly Weather History & Observations

Time (CDT) Temp. Heat Index Dew Point Humidity Pressure Visibility Wind Dir Wind Speed Gust Speed Precip Events Conditions
12:53 AM 75.9 °F - 66.0 °F 71% 29.91 in 10.0 mi SW 5.8 mph - N/A   Scattered Clouds
1:53 AM 75.0 °F - 66.0 °F 73% 29.93 in 10.0 mi SSW 5.8 mph - N/A   Mostly Cloudy
2:53 AM 73.9 °F - 66.0 °F 76% 29.91 in 10.0 mi SSW 8.1 mph - N/A   Scattered Clouds
3:53 AM 73.0 °F - 66.0 °F 79% 29.91 in 10.0 mi SSW 8.1 mph - N/A   Scattered Clouds
4:53 AM 73.0 °F - 66.0 °F 79% 29.92 in 10.0 mi SSW 8.1 mph - N/A   Mostly Cloudy
5:53 AM 73.0 °F - 66.9 °F 81% 29.92 in 10.0 mi SSW 10.4 mph - N/A   Mostly Cloudy
6:53 AM 72.0 °F - 66.9 °F 84% 29.93 in 10.0 mi SSW 8.1 mph - N/A   Mostly Cloudy
7:53 AM 73.0 °F - 66.9 °F 81% 29.93 in 10.0 mi SW 9.2 mph - N/A   Mostly Cloudy
8:53 AM 77.0 °F - 68.0 °F 74% 29.91 in 10.0 mi SSW 9.2 mph - N/A   Mostly Cloudy
9:53 AM 78.1 °F - 69.1 °F 74% 29.93 in 10.0 mi SW 12.7 mph - N/A   Mostly Cloudy
10:53 AM 81.0 °F 84.1 °F 69.1 °F 67% 29.93 in 10.0 mi SW 11.5 mph - N/A   Mostly Cloudy
11:53 AM 84.0 °F 88.4 °F 70.0 °F 63% 29.92 in 10.0 mi WSW 12.7 mph - N/A   Mostly Cloudy
12:53 PM 86.0 °F 91.5 °F 71.1 °F 61% 29.92 in 10.0 mi WSW 11.5 mph 19.6 mph N/A   Mostly Cloudy
1:53 PM 87.1 °F 93.6 °F 72.0 °F 61% 29.90 in 10.0 mi SW 12.7 mph 19.6 mph N/A   Mostly Cloudy
2:53 PM 88.0 °F 94.7 °F 72.0 °F 59% 29.89 in 10.0 mi SW 11.5 mph - N/A   Mostly Cloudy
3:53 PM 87.1 °F 93.6 °F 72.0 °F 61% 29.87 in 10.0 mi SW 10.4 mph - N/A   Mostly Cloudy
4:53 PM 87.1 °F 93.6 °F 72.0 °F 61% 29.86 in 10.0 mi SSW 11.5 mph - N/A   Mostly Cloudy
5:53 PM 86.0 °F 92.2 °F 72.0 °F 63% 29.85 in 10.0 mi SW 10.4 mph - N/A   Mostly Cloudy
6:53 PM 84.0 °F 89.6 °F 72.0 °F 67% 29.84 in 10.0 mi SW 10.4 mph - N/A   Mostly Cloudy
7:53 PM 82.9 °F 88.0 °F 72.0 °F 69% 29.82 in 10.0 mi SSW 9.2 mph - N/A   Mostly Cloudy
8:53 PM 82.9 °F 88.0 °F 72.0 °F 69% 29.82 in 10.0 mi SSW 11.5 mph - N/A   Overcast
9:53 PM 82.9 °F 87.0 °F 70.0 °F 65% 29.83 in 10.0 mi SSW 12.7 mph 21.9 mph N/A   Overcast
10:53 PM 82.0 °F 85.5 °F 69.1 °F 65% 29.82 in 10.0 mi SW 11.5 mph - N/A   Overcast
11:53 PM 82.0 °F 84.9 °F 68.0 °F 62% 29.82 in 10.0 mi SW 11.5 mph - N/A   Overcast